sat.trackr.live / text

‹ back to catalog

QIANFAN-12

NORAD 60390 · 2024-140M

PAYLOAD ACTIVE UNKNOWN

§ Identity

Operator
Country
PRC
Launch date
2024-08-06
Launch site
TAISC
Launch vehicle
Mass (kg)
RCS (m²)

External: N2YO · Heavens-Above · Gunter

§ Orbital elements

Epoch: 2026-05-25T03:07:24.146112Z

Period
106.59 min
Inclination
88.9697°
Eccentricity
0.0015189
Mean motion
13.51008144 rev/d
Perigee alt
1,057.2 km
Apogee alt
1,079.9 km
Semi-major
7,446.7 km
B*
7.3642e-5
RAAN
282.3299°
Arg perigee
95.3220°
Mean anomaly
264.9664°
Rev number
8,930

§ Raw data

QIANFAN-121 60390U 24140M   26145.13014058  .00000060  00000+0  73642-4 0  99902 60390  88.9697 282.3299 0015189  95.3220 264.9664 13.51008144 89301

JSON: /api/v1/satellites/60390 · /tle

For live sub-satellite position, see the globe view (requires WebGL).

§ Visibility from observer

Set your observer location to see the next 7 days of passes ≥ 10°. The values pass through the URL so the page stays shareable.

No JS? Fill the form by hand. The geolocation button needs JavaScript.